Location: CAO
(44.5093°N, 80.3921°W)
Time: 08:27:47
(UTC-05:00)

ARIANE 6 FM1 Upper Stage - Pass Details

Date: 24 January 2026
Orbit: 522 x 609 km, 62.0° (Epoch: 8 February)

Event Time Altitude Azimuth Distance (km) Brightness Sun altitude
Rises 18:56:04 0° 226° (SW) 2,711 7.1 -17.1°
Reaches altitude 10° 18:58:18 10° 230° (SW) 1,807 6.1 -17.5°
Maximum altitude 19:02:20 64° 312° (NW) 599 2.9 -18.2°
Enters shadow 19:04:15 28° 25° (NNE) 1,011 3.6 -18.5°
